Starlink 30210

operational
NORAD ID: 57292 Int'l Des: 2023-096 Owner: SPXS Country: US Constellation: starlink
LEOCIRCULAR

关于 Starlink 30210

正在加载描述...

实时位置

正在加载3D地球...

即将过境

高度历史

Altitude vs Time

uPlot chart will show altitude changes over time

两行轨道根数

1 57292U 23096C 25352.33335648 .00207043 00000-0 36458-2 0 9991
2 57292 42.9815 268.1915 0033554 184.0470 144.4695 15.48353767 5795
Epoch: Dec 18, 2025 • Age: 12 hours

当前状态

高度 400.2 km
速度 7.68 km/s
星下点 14.98°N, 46.32°E
发射日期 Jul 10, 2023
运行时间 2.4 years
类型 internet

技术详情

分类 Payload
质量 730.00 kg
干质量 700.00 kg
总质量 730.00 kg
长度 0.30 m
直径 4.10 m
跨度 29.00 m
形状 Box + pan
制造商 SPXS
平台类型 Starlink V2M
阶段状态 In Orbit
所有者/国家 SPXS/US

大型星座

Loading constellations...